Location: Kosice
(48.7170°N, 21.2500°E)
Time: 10:05:53
(UTC+02:00)

ISS - Pass Details

Date: 27 March 2019
Orbit: 408 x 410 km, 51.6° (Epoch: 21 April)

Event Time Altitude Azimuth Distance (km) Brightness Sun altitude
Rises 20:10:08 0° 277° (W) 2,336 1.2 -21.4°
Reaches altitude 10° 20:12:16 10° 283° (WNW) 1,475 0.0 -21.7°
Enters shadow 20:15:16 47° 344° (NNW) 553 -2.9 -22.1°
